www.pogodaiklimat.ru

Погода и климат >> Архив погоды >> Ирак >> Басра


ПОГОДА в Басре

  • Прогноз погоды в Басре
  • Монитор погоды в Басре

АРХИВ ПОГОДЫ в Басре

Время (UTC), дата Ветер
(напр.,м/с)
 
Видим.   Явления Облачность Т
(С)
Тd
(С)
f
(%)
Тe
(С)
Тes
(С)
Комфортность P
(гПа)
Po
(гПа)
Тmin
(С)
Tmax
(С)
R
(мм)
R24
(мм)
S
(см)
12 15.02 ЮВ 8 10 км 8/8 1050 м
[Cu Sc]
+20.4 +11.4 56 +22 +22 комфорт 1011.6 1011.4
15 15.02 ЮВ 7 10 км 8/0
[Ac trans Cs]
+17.6 +13.0 74 +17 +17 1012.3 1012.1
18 15.02 ЮВ 6 10 км 8/0
[Cs]
+17.2 +13.7 80 +16 +16 1014.6 1014.4 +21.8
21 15.02 штиль 0 10 км 8/0
[Cs]
+16.6 +14.1 85 +16 +16 1014.8 1014.6
00 16.02 СЗ 5 10 км 6/6 1200 м
[Cu hum]
+14.4 +10.6 78 +13 +13 1016.0 1015.8
03 16.02 СЗ 3 10 км 1/0
[Ci sp]
+13.0 +6.8 66 +12 +12 1017.5 1017.3
06 16.02 СЗ 3 10 км 4/4 1200 м
[Cu med, cong]
+16.4 +3.5 42 +16 +19 1019.7 1019.5 +12.6
09 16.02 С 5 10 км 4/4 900 м
[Cu hum Ac trans]
+20.0 +3.1 33 +20 +24 1019.4 1019.2
12 16.02 С 7 10 км 3/3 900 м
[Cu hum]
+21.2 +2.6 29 +21 +22 комфорт 1018.1 1017.9
15 16.02 С 5 10 км ясно +17.0 +2.0 36 +16 +16 1019.3 1019.1
18 16.02 СЗ 3 10 км ясно +15.2 +4.0 47 +15 +15 1020.9 1020.7 +21.8
21 16.02 СЗ 3 10 км ясно +12.4 +7.5 72 +11 +11 1020.6 1020.4
00 17.02 штиль 0 10 км ясно +11.4 +5.3 66 +11 +11 1020.0 1019.8
06 17.02 З 2 10 км ясно +13.0 +6.8 66 +12 +18 1021.5 1021.3 +9.0
09 17.02 СЗ 2 10 км ясно +21.4 +3.6 31 +22 +34 комфорт 1020.5 1020.3
12 17.02 СЗ 3 10 км 3/3 900 м
[Cu hum]
+22.8 +4.2 30 +23 +26 комфорт 1018.2 1018.0
15 17.02 З 2 10 км ясно +18.6 +6.1 44 +19 +19 1018.5 1018.3
18 17.02 СЗ 2 10 км ясно +15.8 +8.3 61 +16 +16 1019.7 1019.5 +23.2
09 18.02 СЗ 4 10 км ясно +20.2 +5.8 39 +21 +29 комфорт 1017.5 1017.3
12 18.02 СЗ 4 10 км 3/3 1050 м
[Cu hum]
+20.8 +3.2 31 +21 +24 комфорт 1014.8 1014.6
15 18.02 СЗ 3 10 км 3/0
[Ac trans]
+17.8 +3.8 39 +18 +18 1013.5 1013.3
18 18.02 штиль 0 10 км 3/0
[Ac trans]
+14.4 +6.1 57 +14 +14 1014.9 1014.7 +21.6
06 19.02 СЗ 2 10 км 5/0
[Ac trans Ci fib]
+14.2 +6.8 61 +14 +19 1015.7 1015.5 +9.0
09 19.02 СЗ 4 10 км 3/0
[Ac trans]
+19.2 +6.5 44 +20 +27 1015.9 1015.7
12 19.02 СЗ 5 10 км 4/4 900 м
[Cu med, cong]
+20.2 +3.5 33 +21 +22 комфорт 1015.2 1015.0
18 19.02 СЗ 2 10 км ясно +15.4 +7.4 59 +15 +15 1018.2 1018.0 +20.5
21 19.02 З 2 10 км ясно +13.6 +7.3 66 +13 +13 1018.9 1018.7
00 20.02 штиль 0 10 км ясно +11.4 +7.0 74 +11 +11 1018.7 1018.5
06 20.02 штиль 0 10 км ясно +12.8 +5.1 59 +13 +21 1021.4 1021.2 +8.0
09 20.02 СЗ 3 10 км ясно +20.2 +6.9 42 +21 +32 комфорт 1020.8 1020.6
12 20.02 СЗ 4 10 км 1/1 1200 м
[Cu hum]
+21.8 +2.4 28 +22 +25 комфорт 1019.4 1019.2
15 20.02 СЗ 2 10 км 1/0
[Ac trans]
+18.4 +3.6 37 +19 +19 1019.4 1019.2
21 20.02 штиль 0 10 км 3/0
[Ci fib]
+11.0 +5.8 70 +11 +11 1020.9 1020.7
00 21.02 штиль 0 10 км 1/0
[Ci fib]
+10.2 +5.9 75 +10 +10 1020.7 1020.5
03 21.02 З 3 10 км ясно +9.2 +4.7 73 +7 +7 1021.6 1021.4
06 21.02 штиль 0 10 км ясно +15.4 +7.4 59 +15 +24 1023.1 1022.9 +8.6
09 21.02 З 2 10 км 1/1 900 м
[Cu hum]
+21.2 +4.5 33 +21 +33 комфорт 1021.9 1021.7
12 21.02 СЗ 2 10 км 3/3 900 м
[Cu hum]
+22.4 +4.1 30 +22 +26 комфорт 1020.0 1019.8
15 21.02 С 2 10 км ясно +19.0 +3.3 35 +20 +20 1020.0 1019.8
18 21.02 штиль 0 10 км 8/0
[Cs]
+15.6 +6.6 55 +16 +16 1021.5 1021.3 +23.5
21 21.02 Ю 2 10 км 4/0
[Ci fib]
+14.2 +7.8 65 +14 +14 1020.9 1020.7
03 22.02 штиль 0 10 км 4/0
[Ci fib]
+10.4 +7.5 82 +10 +10 1020.1 1019.9
06 22.02 Ю 2 10 км 4/0
[Ac trans Ci fib]
+15.2 +9.4 68 +15 +20 1021.6 1021.4 +10.0

 

Местоположение метеостанции Басра (Ирак): широта 30.57 долгота 47.78 высота над уровнем моря 2 м.

В архиве по умолчанию представлена погода в Басре за последнюю неделю. Архивные данные за месяц целиком и за предыдущие месяцы, начиная с января 2011 года, Вы можете получить, выбрав интересующий диапазон дат из раскрывающегося списка и нажав кнопку "Ввод!".


*Определитесь, кто Вы:
робот инопланетянин человек

Внимание! Время в таблицах - всемирное. Для получения местного времени необходимо прибавить поправку, которая равна 3 ч.

Смотрите также архив погоды в соседних городах и на ближайших метеорологических станциях:

Погода в Басре аэропорт (Ирак) (6 км)
Погода в Абадане (Иран) (50 км)
Погода в Абдали (Кувейт) (55 км)
Погода на Метеостанции Sabriyah (Кувейт) (91 км)
Погода на Метеостанции Mintribah (Кувейт) (92 км)
Погода в Эль-Фао (Ирак) (95 км)
Погода на Бубияне (Кувейт) (106 км)
Погода на Метеостанции Jal Aliyah (Кувейт) (108 км)
Погода в Ахвазе (Иран) (120 км)
Погода Остров Файлака (Кувейт) (131 км)

Пояснения к столбцам:

Ветер - указаны скорость ветра в м/с - средняя за 10 мин, порывы в срок и между сроками (в фигурных скобках) и направление, откуда дует ветер: С - северный, СВ - северо-восточный, В - восточный, ЮВ - юго-восточный, Ю - южный, ЮЗ - юго-западный, З - западный, СЗ - северо-западный.
Видимость - горизонтальная дальность видимости в метрах или километрах. При видимости от 1 до 10 км при отсутствии осадков обычно наблюдается дымка, при ухудшении видимости до 1 км и менее - туман. В сухую погоду видимость может ухудшаться дымом, пылью или мглою.
Явления - указаны атмосферные явления, наблюдавшиеся в срок или в последний час перед сроком; фигурными скобками обозначены явления, наблюдавшиеся между сроками (за 1-3 часа до срока); квадратными скобками обозначены град или гололедные отложения с указанием их диаметра в мм.
Облачность - указаны через наклонную черту общая и нижняя облачность в баллах и высота нижней границы облаков в метрах; квадратными скобками обозначены формы облаков: Ci - перистые, Cs - перисто-слоистые, Cc - перисто-кучевые, Ac - высококучевые, As - высокослоистые, Sc - слоисто-кучевые, Ns - слоисто-дождевые, Cu - кучевые, Cb - кучево-дождевые. Подробнее классификацию облаков см. в Атласе облаков (PDF).
T - Температура воздуха - температура, измеренная на высоте 2 м над землей.
Td - Температура точки росы - температура, при понижении до которой содержащийся в воздухе водяной пар достигнет насыщения.
f - Относительная влажность воздуха - влажноcть воздуха, измеренная на высоте 2 м над землей.
Te - Эффективная температура - температура, которую ощущает одетый по сезону человек в тени. Характеристика душности погоды. При расчете учитывается влияние влажности воздуха и скорости ветра на теплоощущения человека.
Tes - Эффективная температура на солнце - температура, которую ощущает человек, с поправкой на солнечный нагрев. Характеристика знойности погоды. Зависит от высоты солнца над горизонтом, облачности и скорости ветра. Ночью, в пасмурную погоду, а также при ветре 12 м/с и более поправка равна нулю.
P - Атмосферное давление - приведенное к уровню моря атмосферное давление.
Po - Атмосферное давление - измеренное на уровне метеостанции атмосферное давление.
Tmin - Минимальная температура - минимум температуры воздуха на высоте 2 м над землей.
Tmax - Максимальная температура - максимум температуры воздуха на высоте 2 м над землей.
R - Количество осадков - Количество выпавших осадков за период времени, мм. При наведении курсора мыши на число - период времени, за который выпало указанное количество осадков.
R24 - Количество осадков - Количество выпавших осадков за 24 часа, мм.
S - Снежный покров - Высота снежного покрова, см. При наведении курсора мыши на число - состояние снежного покрова и степень покрытия местности в баллах.